Regional Weather Roundup
Issued by NWS Cleveland, OH

Home | Current Version | Previous Version | Text Only | Print | Product List | Glossary On
Versions: 1 2 3 4 5 6 7 8 9 10 11 12 13 14 15 16 17 18 19 20 21 22 23 24 25 26 27 28 29 30 31 32 33 34 35 36 37 38 39 40 41 42 43 44 45 46 47 48 49 50
000
ASUS41 KCLE 292010
RWRCLE
OHIO REGIONAL WEATHER ROUNDUP
NATIONAL WEATHER SERVICE WILMINGTON, OH
400 PM EDT WED JUL 29 2015

NOTE: "FAIR" INDICATES FEW OR NO CLOUDS BELOW 12,000 FEET WITH NO
SIGNIFICANT WEATHER AND/OR OBSTRUCTIONS TO VISIBILITY.

OHZ001>008-015>018-024>027-034-035-043-044-292100-
   NORTHWEST OHIO

CITY           SKY/WX    TMP DP  RH WIND       PRES   REMARKS
DEFIANCE       CLOUDY    84  72  67 S9        29.91F THUNDER
FINDLAY        PTSUNNY   88  72  58 SW7       29.91F HX  94
TOLEDO EXPRESS LGT RAIN  77  75  93 SW9       29.89F FOG
TOLEDO EXEC    PTSUNNY   89  71  55 SW14      29.90F HX  95
LIMA           CLOUDY    83  72  69 W18G29    29.96R
$$

OHZ009>014-019>023-028>033-038-089-292100-
   NORTHEAST OHIO

CITY           SKY/WX    TMP DP  RH WIND       PRES   REMARKS
CLE-HOPKINS    MOSUNNY   92  66  42 SW7       29.94F HX  94
CLE-LAKEFRONT  MOSUNNY   86  72  62 N7        29.90F HX  92
CUY CO. ARPT   PTSUNNY   93  66  40 N10       29.93F HX  96
LORAIN-ELYRIA  MOSUNNY   91  67  44 SW10      29.92F HX  94
ASHTABULA      MOSUNNY   90  64  42 SW8       29.94F HX  91
AKRON-CANTON   PTSUNNY   90  66  45 SW10      29.95F HX  92
WOOSTER        MOSUNNY   87  70  56 VRB6      29.95F HX  92
MANSFIELD      MOSUNNY   88  69  53 S9        29.95F HX  92
YOUNGSTOWN     PTSUNNY   88  65  46 SW10      29.95F HX  90
$$

OHZ042-051>053-060>062-070>072-077>081-292100-
  SOUTHWEST OHIO

CITY           SKY/WX    TMP DP  RH WIND       PRES   REMARKS
CINC-COVINGTON NOT AVBL
CINC-LUNKEN    PTSUNNY   83  72  69 W14       29.95R THUNDER
HAMILTON       TSTM      75  72  90 S5        29.94S FOG
DAYTON         PTSUNNY   89  75  63 W6        29.95F HX  99
WRIGHT-PAT AFB PTSUNNY   91  73  55 VRB6      29.93F THUNDER HX 100
DAYTON GENERAL TSTM      74  71  91 S7G21     29.95R FOG
WILMINGTON     MOSUNNY   89  72  56 S5        29.95F HX  96
$$

OHZ036-037-039>041-045>050-054>059-063>069-073>076-082>088-292100-
  CENTRAL AND SOUTHEAST OHIO

CITY           SKY/WX    TMP DP  RH WIND       PRES   REMARKS
COLUMBUS       PTSUNNY   89  70  53 S7G16     29.93F HX  94
OSU AIRPORT    MOSUNNY   90  71  53 S10       29.93F HX  96
BOLTON FIELD   MOSUNNY   90  75  62 S6        29.95F HX 100
RICKENBACK AFB MOSUNNY   89  72  57 S7        29.93F HX  96
NEWARK         MOSUNNY   91  70  49 W8        29.93F HX  96
MARION         PTSUNNY   88  70  55 S9        29.93F HX  93
LANCASTER      MOSUNNY   90  71  53 S8        29.94F HX  96
ZANESVILLE     MOSUNNY   88  69  53 SW6       29.94F HAZE    HX  92
NEW PHILLY     SUNNY     87  71  58 SW6       29.95F HX  93
$$



USA.gov is the U.S. government's official web portal to all federal, state and local government web resources and services.